{"data":{"norad_id":69297,"epoch":"2026-09-20T00:12:15.064416Z","epoch_age_seconds":71515,"freshness":"FRESH","line1":"1 69297U 26119B   26263.00850769  .00016535  00000+0  51317-3 0  9995","line2":"2 69297  97.2832 287.8352 0001186  92.5094 267.6285 15.33457343 18593","mean_motion":15.33457343,"eccentricity":0.0001186,"inclination_deg":97.2832,"raan_deg":287.8352,"arg_perigee_deg":92.5094,"mean_anomaly_deg":267.6285,"bstar":0.00051317,"rev_number":1859,"period_min":93.905448793433,"perigee_km":464.69479452726,"apogee_km":466.31810675375,"semimajor_km":6843.6434506405,"source":"CELESTRAK","updated_at":"2026-09-20T09:00:44.153866Z"}}